This demonstration page uses our WeatherBlox Daily Observations layout. Learn more.

38.89511, -77.03637

Hourly Observations for September 2, 2017

Temp ( °F °C ) Dew Point ( °F °C ) Humidity (%) Winds ( mph kmh ) Pressure ( in mb ) Visibility ( mi km ) Precip ( " mm )
12:52 am 00:52 Cloudy 64 17.8 52 11.1 65 65 ENE 8 13 30.12 1020 10 16.09344 0 0
1:52 am 01:52 Cloudy 63 17.2 53 11.7 70 70 ENE 8 13 30.12 1020 10 16.09344 0 0
2:52 am 02:52 Cloudy 63 17.2 53 11.7 70 70 NNE 9 15 30.12 1020 10 16.09344 0 0
3:52 am 03:52 Cloudy with Light Rain 62 16.7 54 12.2 75 75 E 5 7 30.12 1020 9 14.484096 0.01 0.254
4:52 am 04:52 Cloudy with Light Rain 62 16.7 53 11.7 73 73 NE 8 13 30.12 1020 10 16.09344 0.03 0.762
5:52 am 05:52 Cloudy with Light Rain 59 15 55 12.8 87 87 SSE 6 9 30.15 1021 8 12.874752 0.08 2.032
6:52 am 06:52 Cloudy with Light Rain 57 13.9 55 12.8 93 93 SE 13 20 30.15 1021 7 11.265408 0.04 1.016
7:07 am 07:07 Cloudy with Rain 57 13.9 56 13.3 96 96 E 14 22 30.18 1022 3 4.828032 0.07 1.778
7:09 am 07:09 Cloudy with Heavy Rain 57 13.9 56 13.3 96 96 E 15 24 30.18 1022 2.5 4.02336 0.09 2.286
7:20 am 07:20 Cloudy with Heavy Rain 57 13.9 56 13.3 96 96 E 14 22 30.15 1021 3 4.828032 0.21 5.334
7:45 am 07:45 Cloudy with Light Rain 58 14.4 55 12.8 90 90 ENE 14 22 30.15 1021 9 14.484096 0.22 5.588
7:47 am 07:47 Cloudy with Light Rain 57 14 55 13 94 94 ENE 13 20 30.15 1021 10 16.09344 0.22 5.588
7:52 am 07:52 Cloudy with Light Rain 58 14.4 56 13.3 93 93 ENE 12 19 30.15 1021 10 16.09344 0.22 5.588
8:47 am 08:47 Cloudy with Light Rain 59 15 57 14 94 94 NE 12 19 30.15 1021 5 8.04672 0.02 0.508
8:52 am 08:52 Cloudy with Heavy Rain 59 15 57 13.9 93 93 NE 10 17 30.15 1021 2 3.218688 0.05 1.27
8:54 am 08:54 Cloudy with Heavy Rain 59 15 57 13.9 93 93 ENE 10 17 30.15 1021 1.5 2.414016 0.02 0.508
9:02 am 09:02 Cloudy with Rain 59 15 58 14.4 96 96 NE 10 17 30.15 1021 1.75 2.816352 0.1 2.54
9:04 am 09:04 Cloudy with Light Rain 59 15 58 14.4 96 96 NE 12 19 30.15 1021 2.5 4.02336 0.1 2.54
9:06 am 09:06 Cloudy with Light Rain 59 15 58 14.4 96 96 NE 12 19 30.15 1021 4 6.437376 0.11 2.794
9:21 am 09:21 Cloudy with Light Rain 59 15 58 14.4 96 96 NNE 10 17 30.18 1022 4 6.437376 0.11 2.794
9:24 am 09:24 Cloudy with Heavy Rain 59 15 58 14.4 96 96 NE 9 15 30.18 1022 2.5 4.02336 0.15 3.81
9:32 am 09:32 Cloudy with Light Rain 59 15 58 14.4 96 96 N 9 15 30.18 1022 4 6.437376 0.17 4.318
9:52 am 09:52 Cloudy 60 15.6 58 14.4 93 93 NNE 12 19 30.15 1021 10 16.09344 0.17 4.318
9:54 am 09:54 Cloudy 60 15.6 58 14.4 93 93 NNE 12 19 30.18 1022 10 16.09344 0 0
10:02 am 10:02 Cloudy 60 15.6 59 15 96 96 NE 13 20 30.15 1021 10 16.09344 0 0
10:09 am 10:09 Cloudy with Light Rain 60 15.6 58 14.4 93 93 NNE 10 17 30.18 1022 7 11.265408 0.001 0.001
10:12 am 10:12 Cloudy with Light Rain 60 15.6 58 14.4 93 93 NNE 10 17 30.18 1022 6 9.656064 0.01 0.254
10:42 am 10:42 Cloudy with Rain 60 15.6 59 15 96 96 NNE 12 19 30.18 1022 2.5 4.02336 0.06 1.524
10:46 am 10:46 Cloudy with Light Rain 61 16 57 14 88 88 NNE 9 15 30.18 1022 3 4.828032 0.07 1.778
10:52 am 10:52 Cloudy with Light Rain 60 15.6 58 14.4 93 93 NE 9 15 30.15 1021 6 9.656064 0.07 1.778
10:59 am 10:59 Cloudy with Heavy Rain 60 15.6 59 15 96 96 NE 12 19 30.15 1021 2.5 4.02336 0.04 1.016
11:05 am 11:05 Cloudy with Rain 60 15.6 59 15 96 96 NE 13 20 30.15 1021 3 4.828032 0.06 1.524
11:07 am 11:07 Cloudy with Light Rain 60 15.6 59 15 96 96 NNE 12 19 30.15 1021 3 4.828032 0.06 1.524
11:33 am 11:33 Cloudy with Light Rain 61 16.1 60 15.6 97 97 NNE 13 20 30.15 1021 10 16.09344 0.07 1.778
11:52 am 11:52 Cloudy 61 16.1 60 15.6 97 97 NE 13 20 30.12 1020 10 16.09344 0.07 1.778
12:10 pm 12:10 Cloudy 61 16.1 60 15.6 97 97 NE 10 17 30.15 1021 10 16.09344 0.001 0.001
12:52 pm 12:52 Cloudy 62 16.7 60 15.6 93 93 NE 12 19 30.09 1019 10 16.09344 0.001 0.001
1:38 pm 13:38 Cloudy with Light Rain 62 16.7 61 16.1 96 96 NE 12 19 30.12 1020 3 4.828032 0.001 0.001
1:52 pm 13:52 Cloudy with Light Rain 63 17.2 61 16.1 93 93 NE 10 17 30.09 1019 3 4.828032 0.001 0.001
2:19 pm 14:19 Cloudy with Light Rain 62 16.7 61 16.1 96 96 NE 9 15 30.09 1019 3 4.828032 0.02 0.508
2:30 pm 14:30 Cloudy with Light Rain 62 16.7 61 16.1 96 96 NNE 9 15 30.09 1019 2.5 4.02336 0.02 0.508
2:52 pm 14:52 Cloudy with Light Rain 62 16.7 61 16.1 96 96 NNE 10 17 30.09 1019 2 3.218688 0.03 0.762
3:08 pm 15:08 Cloudy with Light Rain 62 16.7 61 16.1 96 96 NE 13 20 30.09 1019 2 3.218688 0.001 0.001
3:18 pm 15:18 Cloudy with Light Drizzle 62 16.7 62 16.7 100 100 NE 12 19 30.09 1019 2.5 4.02336 0.001 0.001
3:21 pm 15:21 Cloudy with Light Drizzle 63 17.2 62 16.7 97 97 NE 10 17 30.09 1019 3 4.828032 0.001 0.001
3:52 pm 15:52 Cloudy with Light Drizzle 63 17.2 62 16.7 97 97 NE 13 20 30.06 1018 5 8.04672 0.001 0.001
4:04 pm 16:04 Cloudy 63 17.2 62 16.7 97 97 NE 13 20 30.06 1018 9 14.484096 0.001 0.001
4:48 pm 16:48 Cloudy 63 17 63 17 100 100 NE 12 19 30.06 1018 10 16.09344 0.001 0.001
4:52 pm 16:52 Cloudy 63 17.2 62 16.7 97 97 NE 13 20 30.03 1017 10 16.09344 0.001 0.001
5:52 pm 17:52 Cloudy 64 17.8 62 16.7 93 93 NE 9 15 30.03 1017 10 16.09344 0 0
6:45 pm 18:45 Cloudy 64 17.8 62 16.7 93 93 ENE 10 17 30.03 1017 10 16.09344 0 0
6:52 pm 18:52 Cloudy 64 17.8 62 16.7 93 93 NE 9 15 30.03 1017 10 16.09344 0 0
7:27 pm 19:27 Cloudy 64 17.8 62 16.7 93 93 NE 9 15 30.03 1017 10 16.09344 0 0
7:52 pm 19:52 Cloudy with Light Drizzle 64 17.8 62 16.7 93 93 NE 9 15 30.03 1017 10 16.09344 0.001 0.001
8:29 pm 20:29 Cloudy 64 17.8 62 16.7 93 93 NNE 8 13 30.06 1018 10 16.09344 0.001 0.001
8:52 pm 20:52 Cloudy 64 17.8 62 16.7 93 93 NE 13 20 30.03 1017 10 16.09344 0.001 0.001
9:52 pm 21:52 Cloudy 63 17.2 62 16.7 97 97 NE 10 17 30.03 1017 10 16.09344 0 0
10:52 pm 22:52 Cloudy 63 17.2 63 17.2 100 100 E 5 7 30 1016 10 16.09344 0 0
11:52 pm 23:52 Cloudy 64 17.8 63 17.2 96 96 W 3 6 30 1016 10 16.09344 0 0

Powered by AerisWeather